Content
SEND FEEDBACK

Daily
Averages
Monthly
Summary
Canada

VANCOUVER, BRITISH COLUMBIA


Home > North America > Canada > British Columbia
Elevation: 7 feet     Latitude: 49 11N     Longitude: 123 10W

WEATHER
 
SELECT A DAY
Number of Records: 249,253;   Date Range: 5/15/97 - 7/23/14
 
SHARE

PRINT THIS DATA

[ ← Previous Day ]
WEATHER ALMANAC - JANUARY 29, 2013
[ Next Day → ]
[ °C ]   °F
Weather ElementAverageHighLow
Temperature42.5 °F46.4 °F (10:15 pm)37.4 °F (4:35 am)
Dewpoint40.6 °F44.6 °F (6:15 pm)37.4 °F (12:35 am)
Humidity93.2 %100 % (1:15 am)81 % (11:35 am)
Barometer30.21 in30.28 in (11:55 pm)30.04 in (12:35 am)
Wind Speed2.8 mph12.7 mph (11:55 pm)
Weather ElementAverage
Visibility9.3 mi
Wind DirectionENE (62.4 °)

Weather ElementTotal
Precipitation---
Heating Degree Days23.1 (Base 65)
Averaged from 68 records on January 29, 2013
WEATHER CONDITIONS BREAKOUT
WIND DIRECTION BREAKOUT
WEATHER BY HOUR - JANUARY 29, 2013
[ °C ]   °F
Local TimeTemperatureDewpointHumidityBarometerVisibilityWind DirectionWind SpeedGust SpeedPrecipitationEventsConditions
12:35 AM39.2 °F37.4 °F93 %30.04 in10.0 miCalmPartly Cloudy
12:55 AM39.2 °F37.4 °F93 %30.05 in9.0 miCalmPartly Cloudy
1:15 AM39.2 °F39.2 °F100 %30.05 in8.0 miCalmScattered Clouds
1:35 AM39.2 °F39.2 °F100 %30.06 in10.0 miCalmScattered Clouds
1:55 AM39.2 °F37.4 °F93 %30.06 in10.0 miCalmPartly Cloudy
2:15 AM39.2 °F37.4 °F93 %30.06 in10.0 miCalmClear
2:35 AM39.2 °F37.4 °F93 %30.07 in10.0 miCalmPartly Cloudy
2:55 AM39.2 °F37.4 °F93 %30.08 in10.0 miCalmClear
3:15 AM39.2 °F39.2 °F100 %30.09 in10.0 miCalmPartly Cloudy
3:35 AM39.2 °F37.4 °F93 %30.10 in10.0 miCalmPartly Cloudy
3:55 AM39.2 °F37.4 °F93 %30.11 in10.0 miCalmPartly Cloudy
4:15 AM39.2 °F37.4 °F93 %30.10 in10.0 miCalmPartly Cloudy
4:35 AM37.4 °F37.4 °F100 %30.11 in8.0 miCalmScattered Clouds
4:55 AM39.2 °F39.2 °F100 %30.13 in10.0 miCalmScattered Clouds
5:15 AM39.2 °F37.4 °F93 %30.14 in10.0 miCalmMostly Cloudy
5:35 AM39.2 °F37.4 °F93 %30.14 in10.0 miCalmMostly Cloudy
5:55 AM39.2 °F39.2 °F100 %30.15 in10.0 miCalmMostly Cloudy
6:15 AM39.2 °F39.2 °F100 %30.15 in10.0 miCalmScattered Clouds
6:35 AM39.2 °F39.2 °F100 %30.16 in10.0 miNorthScattered Clouds
6:55 AM39.2 °F39.2 °F100 %30.17 in10.0 miCalmScattered Clouds
7:15 AM39.2 °F39.2 °F100 %30.17 in10.0 miNorthScattered Clouds
7:35 AM39.2 °F39.2 °F100 %30.17 in10.0 miNorthClear
7:55 AM39.2 °F39.2 °F100 %30.19 in10.0 miCalmMostly Cloudy
8:15 AM39.2 °F39.2 °F100 %30.20 in10.0 miNorthOvercast
8:35 AM41.0 °F39.2 °F93 %30.21 in10.0 miSSW (200°)3.5 mphOvercast
8:55 AM41.0 °F39.2 °F93 %30.22 in10.0 miSouth (180°)3.5 mphOvercast
9:15 AM41.0 °F39.2 °F93 %30.22 in10.0 miCalmOvercast
9:55 AM41.0 °F39.2 °F93 %30.24 in10.0 miCalmOvercast
10:15 AM42.8 °F39.2 °F87 %30.25 in10.0 miCalmOvercast
10:35 AM42.8 °F39.2 °F87 %30.25 in10.0 miNorthOvercast
10:55 AM42.8 °F39.2 °F87 %30.26 in10.0 miCalmMostly Cloudy
11:15 AM42.8 °F39.2 °F87 %30.26 in10.0 miCalmOvercast
11:35 AM44.6 °F39.2 °F81 %30.26 in10.0 miCalmOvercast
11:55 AM44.6 °F39.2 °F81 %30.27 in10.0 miCalmOvercast
12:15 PM44.6 °F39.2 °F81 %30.27 in10.0 miNorthOvercast
12:35 PM44.6 °F39.2 °F81 %30.27 in10.0 miCalmOvercast
12:55 PM44.6 °F41.0 °F87 %30.26 in10.0 miCalmMostly Cloudy
1:15 PM44.6 °F41.0 °F87 %30.26 in10.0 miCalmMostly Cloudy
1:35 PM44.6 °F39.2 °F81 %30.26 in10.0 miCalmMostly Cloudy
1:55 PM44.6 °F39.2 °F81 %30.27 in10.0 miCalmMostly Cloudy
2:15 PM44.6 °F41.0 °F87 %30.27 in10.0 miCalmOvercast
2:35 PM44.6 °F41.0 °F87 %30.26 in10.0 miCalmRainLight Rain
2:55 PM44.6 °F41.0 °F87 %30.25 in10.0 miCalmMostly Cloudy
3:15 PM44.6 °F41.0 °F87 %30.27 in10.0 miCalmOvercast
3:35 PM44.6 °F41.0 °F87 %30.26 in10.0 miCalmMostly Cloudy
3:55 PM44.6 °F41.0 °F87 %30.26 in10.0 miNorthMostly Cloudy
4:15 PM44.6 °F41.0 °F87 %30.26 in10.0 miSSW (200°)6.9 mphMostly Cloudy
4:35 PM44.6 °F41.0 °F87 %30.27 in10.0 miSouth (190°)4.6 mphMostly Cloudy
4:55 PM44.6 °F41.0 °F87 %30.27 in10.0 miNorthOvercast
5:15 PM44.6 °F42.8 °F93 %30.27 in4.0 miNorthRainLight Rain
5:35 PM44.6 °F42.8 °F93 %30.26 in6.0 miSouth (180°)4.6 mphRainLight Rain
5:55 PM44.6 °F42.8 °F93 %30.27 in5.0 miSouth (190°)4.6 mphRainLight Rain
6:15 PM44.6 °F44.6 °F100 %30.27 in6.0 miSouth (190°)4.6 mphRainLight Rain
6:35 PM44.6 °F44.6 °F100 %30.27 in4.0 miSouth (190°)3.5 mphRainRain
6:55 PM44.6 °F44.6 °F100 %30.27 in5.0 miSouth (190°)4.6 mphRainRain
7:15 PM44.6 °F44.6 °F100 %30.27 in5.0 miSouth (190°)5.8 mphRainLight Rain
7:35 PM44.6 °F44.6 °F100 %30.27 in7.0 miSouth (190°)4.6 mphRainLight Rain
7:55 PM44.6 °F44.6 °F100 %30.27 in8.0 miSSW (200°)9.2 mphRainLight Rain
8:15 PM44.6 °F44.6 °F100 %30.27 in10.0 miSouth (190°)10.4 mphOvercast
8:35 PM44.6 °F44.6 °F100 %30.26 in10.0 miSouth (190°)11.5 mphScattered Clouds
8:55 PM44.6 °F44.6 °F100 %30.26 in10.0 miSSW (200°)10.4 mphPartly Cloudy
9:15 PM44.6 °F44.6 °F100 %30.26 in10.0 miSouth (190°)9.2 mphMostly Cloudy
9:35 PM44.6 °F44.6 °F100 %30.25 in10.0 miSSW (200°)10.4 mphPartly Cloudy
10:15 PM46.4 °F44.6 °F93 %30.26 in10.0 miSouth (190°)9.2 mphOvercast
10:35 PM46.4 °F44.6 °F93 %30.26 in10.0 miSSW (200°)8.1 mphOvercast
11:15 PM46.4 °F44.6 °F93 %30.27 in10.0 miSSW (200°)11.5 mphMostly Cloudy
11:35 PM46.4 °F44.6 °F93 %30.27 in10.0 miSSW (200°)11.5 mphMostly Cloudy
11:55 PM44.6 °F44.6 °F100 %30.28 in10.0 miSouth (190°)12.7 mphOvercast
Hourly data recorded from CZBB, located miles away from Vancouver, British Columbia







STORIES FROM OUR PARTNERS